Terug naar catalogus

STARLINK-38003

ActiefCommunicatieSSO
NORAD 69720·PAYLOAD·🇺🇸 United States

Gelanceerd Jun 28, 2026 vanaf Vandenberg Space Force Base

Loading…

Volgende Passages (komende 24 uur)

TLE

VersSource: CelesTrak SupGP

Epoch: Sep 14, 2026, 21:25 UTC

1 69720C 26147S   26257.89284722  .00013698  00000+0  42537-3 0  2575
2 69720  97.2835 294.3622 0000985  95.1444   0.5517 15.33422348    11

Volg STARLINK-38003 in realtime met AllMySat

Download on the App Store